This demonstration page uses our WeatherBlox Daily Observations layout. Learn more.

Left ArrowRight Arrow

38.20091, -84.87328

Hourly Observations for January 27, 2015

Temp ( °F °C ) Dew Point ( °F °C ) Humidity (%) Winds ( mph kmh ) Pressure ( in mb ) Visibility ( mi km ) Precip ( " mm )
12:53 am 00:53 Cloudy 29 -1.7 23 -5 78 78 Calm 29.93 1014 8 13 0.00 0.03
1:53 am 01:53 Cloudy with Light Snow 28 -2.2 24 -4.4 85 85 Calm 29.91 1013 4 6 0.00 0.03
2:53 am 02:53 Cloudy with Light Snow 28 -2.2 24 -4.4 85 85 Calm 29.91 1013 6 10 0.00 0.03
3:19 am 03:19 Cloudy with Light Snow 28 -2.2 25 -3.9 88 88 Calm 29.94 1014 3 4 0.00 0.03
3:46 am 03:46 Cloudy with Light Snow 28 -2.2 25 -3.9 88 88 Calm 29.94 1014 3 5 0.00 0.03
3:53 am 03:53 Cloudy with Light Snow 28 -2.2 25 -3.9 88 88 Calm 29.91 1013 5 8 0.00 0.03
4:53 am 04:53 Cloudy with Mist and Fog 28 -2.2 25 -3.9 88 88 Calm 29.92 1013 5 8 0.01 0.25
5:53 am 05:53 Cloudy with Mist and Fog 28 -2.2 25 -3.9 88 88 Calm 29.93 1013 5 8 0.00 0.03
6:53 am 06:53 Cloudy 28 -2.2 24 -4.4 85 85 NNE 3 6 29.95 1014 7 11 0.00 0.00
7:03 am 07:03 Cloudy with Mist and Fog 28 -2.2 25 -3.9 88 88 NNE 5 7 30.00 1016 6 10 0.00 0.00
7:30 am 07:30 Cloudy with Mist and Fog 28 -2.2 24 -4.4 85 85 NNE 5 7 30.00 1016 6 10 0.00 0.00
7:53 am 07:53 Cloudy 27 -2.8 24 -4.4 89 89 NE 8 13 29.99 1016 8 13 0.00 0.00
8:07 am 08:07 Cloudy with Mist and Fog 27 -2.8 24 -4.4 89 89 NNE 7 11 30.03 1017 6 10 0.00 0.00
8:53 am 08:53 Cloudy 26 -3.3 22 -5.6 84 84 NE 5 7 30.02 1017 7 11 0.00 0.03
9:27 am 09:27 Cloudy 26 -3.3 21 -6.1 81 81 NNE 8 13 30.09 1019 10 16 0.00 0.00
9:50 am 09:50 Cloudy 27 -3 21 -6 80 80 NE 6 9 30.09 1019 9 14 0.00 0.00
9:53 am 09:53 Cloudy 26 -3.3 21 -6.1 81 81 NE 6 9 30.05 1018 9 14 0.00 0.00
10:53 am 10:53 Cloudy 27 -2.8 21 -6.1 78 78 NNE 6 9 30.08 1019 10 16 0.00 0.00
11:05 am 11:05 Cloudy 27 -2.8 20 -6.7 75 75 NE 6 9 30.12 1020 10 16 0.00 0.00
11:25 am 11:25 Cloudy 27 -2.8 20 -6.7 75 75 ENE 6 9 30.12 1020 10 16 0.00 0.00
11:53 am 11:53 Cloudy 28 -2.2 21 -6.1 75 75 N 5 7 30.08 1019 10 16 0.00 0.00
12:53 pm 12:53 Mostly Cloudy 31 -0.6 18 -7.8 59 59 VRB 3 6 30.07 1018 10 16 0.00 0.00
1:53 pm 13:53 Mostly Cloudy 32 0 16 -8.9 52 52 NNE 9 15 30.07 1018 10 16 0.00 0.00
2:53 pm 14:53 Sunny 34 1.1 15 -9.4 46 46 NE 6 9 30.08 1019 10 16 0.00 0.00
3:53 pm 15:53 Sunny 32 0 13 -10.6 45 45 WNW 10 17 30.11 1020 10 16 0.00 0.00
4:53 pm 16:53 Sunny 32 0 10 -12.2 40 40 WNW 8 13 30.13 1020 10 16 0.00 0.00
5:53 pm 17:53 Sunny 30 -1.1 9 -12.8 41 41 WNW 5 7 30.16 1021 10 16 0.00 0.00
6:53 pm 18:53 Clear 27 -2.8 12 -11.1 53 53 NW 3 6 30.18 1022 10 16 0.00 0.00
7:53 pm 19:53 Clear 26 -3.3 12 -11.1 55 55 NW 5 7 30.20 1023 10 16 0.00 0.00
8:53 pm 20:53 Clear 24 -4.4 13 -10.6 62 62 N 3 6 30.23 1024 10 16 0.00 0.00
9:53 pm 21:53 Clear 25 -3.9 13 -10.6 60 60 N 6 9 30.25 1024 10 16 0.00 0.00
10:53 pm 22:53 Clear 24 -4.4 13 -10.6 62 62 NNE 5 7 30.26 1025 10 16 0.00 0.00
11:53 pm 23:53 Clear 22 -5.6 11 -11.7 63 63 NE 5 7 30.26 1025 10 16 0.00 0.00

Powered by AerisWeather